www.pogodaiklimat.ru

Погода и климат >> Архив погоды >> Нигер >> Гая


ПОГОДА в Гае

  • Прогноз погоды в Гае
  • Монитор погоды в Гае

АРХИВ ПОГОДЫ в Гае

Время (UTC), дата Ветер
(напр.,м/с)
 
Видим.   Явления Облачность Т
(С)
Тd
(С)
f
(%)
Тe
(С)
Тes
(С)
Комфортность P
(гПа)
Po
(гПа)
Тmin
(С)
Tmax
(С)
R
(мм)
R24
(мм)
S
(см)
18 15.03 СВ 4 3800 м пыль 9/0
[Cs]
+37.2 +8.8 18 +35 +35 очень
жарко
1005.1 983.0 +41.2
21 15.03 СВ 4 6000 м пыль 9/0
[Cs]
+32.0 +10.5 27 +32 +32 жарко 1007.6 985.3
03 16.03 штиль 0 10 км 9/0
[Cs]
+29.4 +9.2 28 +29 +29 жарко 1006.7 984.7
06 16.03 В 4 3000 м пыль 9/0
[Cs]
+29.0 +8.2 27 +28 +28 жарко 1007.4 985.2 +28.6
09 16.03 штиль 0 1400 м пыль 9/0
[Cs]
+31.0 +15.0 38 +33 +46 душно 1009.9 987.6
12 16.03 Ю 6 2000 м пыль 9/0
[Cs]
+38.0 +16.6 28 +40 +47 очень
душно
1008.6 986.5
18 16.03 ЮЗ 6 1000 м пыль 9/0
[Cs]
+36.0 +14.0 27 +37 +37 душно 1006.5 984.3 +40.0
21 16.03 штиль 0 3000 м пыль 9/0
[Ac As Cs]
+34.0 +12.8 28 +34 +34 очень
жарко
1008.2 985.9
03 17.03 СВ 4 10 км 9/0
[Cs]
+30.0 +10.0 29 +30 +30 жарко 1006.9 974.9
06 17.03 штиль 0 2000 м пыль 9/0
[Ac As Ci sp]
+29.0 +11.0 33 +30 +30 жарко 1008.3 986.1 +26.2
09 17.03 В 4 1200 м пыль 9/0
[Ac lent Ci sp]
+32.4 +10.1 25 +32 +36 жарко 1010.6 988.4
12 17.03 В 4 3000 м пыль 9/0
[Ac lent Cs]
+37.4 +12.4 22 +37 +48 очень
жарко
1008.8 986.6
15 17.03 В 4 2000 м пыль 9/0
[Ac As Ci sp]
+37.4 +12.4 22 +37 +39 очень
жарко
1006.8 984.7
18 17.03 штиль 0 2000 м пыль 9/0
[Ac As Ci sp]
+36.0 +11.0 22 +35 +35 очень
жарко
1006.7 984.5 +39.5
21 17.03 В 4 2000 м пыль 9/0
[Ac lent Ci sp]
+33.6 +9.5 23 +33 +33 жарко 1008.3 986.1
03 18.03 штиль 0 2000 м пыль 9/0
[Cs]
+31.0 +6.5 22 +30 +30 жарко 1007.0 984.9
06 18.03 В 4 800 м пыль {туман} 9/0
[Cs]
+30.0 +3.7 19 +28 +28 жарко 1007.4 985.2 +29.5
09 18.03 В 4 800 м пыль {туман} 9/0
[Cs]
+33.0 +8.4 22 +32 +38 жарко 1009.3 987.1
12 18.03 ЮВ 4 1200 м пыль 9/0
[Cs]
+38.0 +10.3 19 +37 +48 очень
жарко
1007.7 985.6
15 18.03 Ю 4 1200 м пыль 9/0
[Cs]
+39.4 +13.3 21 +39 +44 очень
жарко
1005.4 983.5
18 18.03 штиль 0 1200 м пыль 9/0
[Ac lent Ci sp]
+37.0 +12.8 24 +37 +37 очень
жарко
1005.2 983.0 +40.4
21 18.03 штиль 0 2000 м пыль 9/0
[Ac lent Cs]
+33.6 +12.2 27 +34 +34 очень
жарко
1007.1 985.0
03 19.03 штиль 0 2000 м пыль 9/0
[Cs]
+30.0 +11.8 33 +31 +31 жарко 1005.3 983.3
06 19.03 В 4 3000 м пыль 9/0
[Cs]
+30.4 +7.2 23 +29 +29 жарко 1005.7 983.7 +29.2
09 19.03 В 4 3000 м пыль 9/0
[Cs]
+32.0 +13.9 33 +33 +40 жарко 1007.1 984.9
12 19.03 В 4 3000 м пыль 9/0
[Cs]
+39.4 +14.3 23 +40 +52 опасность
солнечного
удара
1006.2 984.2
15 19.03 штиль 0 3500 м пыль 9/0
[Cs]
+41.0 +14.1 21 +42 +52 опасность
перегрева
1003.2 981.3
18 19.03 штиль 0 2000 м пыль 9/0
[Cs]
+38.6 +14.9 25 +40 +40 очень
душно
1003.5 981.5 +42.2
21 19.03 штиль 0 3000 м пыль 9/0
[Cs]
+36.0 +12.6 25 +36 +36 очень
жарко
1004.9 982.8
03 20.03 штиль 0 3000 м пыль 9/0
[Cs]
+30.6 +12.2 32 +31 +31 жарко 1004.3 982.4
06 20.03 штиль 0 4000 м пыль 9/0
[Cs]
+30.0 +14.8 40 +32 +32 жарко 1006.0 984.0 +27.6
09 20.03 Ю 2 4000 м пыль 9/0
[Cs]
+33.0 +23.0 56 +43 +53 опасность
перегрева
1006.9 984.9
12 20.03 С 6 4000 м пыль 9/0
[Cs]
+40.0 +19.5 31 +45 +52 опасность
перегрева
1005.3 983.4
15 20.03 З 2 4500 м пыль 9/0
[Cs]
+41.6 +17.4 25 +44 +52 опасность
перегрева
1001.7 979.8
18 20.03 штиль 0 3000 м пыль 9/0
[Cs]
+40.0 +19.5 31 +45 +45 опасность
перегрева
1001.0 979.1 +42.6
21 20.03 штиль 0 4500 м пыль 9/0
[Ac lent Ci sp]
+36.2 +17.0 32 +39 +39 очень
душно
1004.3 982.3
03 21.03 штиль 0 8000 м пыль 9/0
[Cs]
+33.0 +19.6 45 +39 +39 очень
душно
1004.3 982.5
06 21.03 штиль 0 8000 м пыль 9/0
[Ac lent Cs]
+32.0 +20.1 49 +38 +38 очень
душно
1005.3 983.4 +31.0
09 21.03 штиль 0 6000 м пыль 9/0
[Cs]
+34.0 +20.9 46 +41 +54 опасность
перегрева
1007.1 985.0
12 21.03 Ю 2 6000 м пыль 9/0
[Cs]
+41.0 +9.2 15 +39 +57 опасность
солнечного
удара
1005.1 983.3
15 21.03 СВ 6 10 км 9/0
[Cs]
+41.2 +9.0 15 +39 +43 очень
жарко
1002.5 980.7
18 21.03 СВ 4 10 км 9/0
[Cs]
+39.2 +9.2 16 +37 +37 очень
жарко
1001.8 979.9 +42.6
21 21.03 С 4 10 км 9/0
[Cs]
+35.0 +9.2 21 +34 +34 очень
жарко
1004.8 982.8
03 22.03 С 8 10 км 9/0
[Cs]
+31.6 +7.0 22 +30 +30 жарко 1003.7 981.9
06 22.03 С 4 10 км 9/0
[Cs]
+28.6 +12.5 37 +30 +30 жарко 1006.4 984.3 +27.0
09 22.03 ЮЗ 4 10 км 9/0
[Cs]
+32.0 +9.1 24 +31 +38 жарко 1007.4 985.3
12 22.03 штиль 0 10 км 9/0
[Cs]
+39.0 +16.0 26 +41 +64 опасность
перегрева
1006.2 984.6
15 22.03 С 4 10 км 9/0
[Cs]
+41.0 +16.5 24 +43 +48 опасность
перегрева
1003.4 981.6

 

Местоположение метеостанции Гая (Нигер): широта 11.88 долгота 3.45 высота над уровнем моря 203 м.

В архиве по умолчанию представлена погода в Гае за последнюю неделю. Архивные данные за месяц целиком и за предыдущие месяцы, начиная с января 2011 года, Вы можете получить, выбрав интересующий диапазон дат из раскрывающегося списка и нажав кнопку "Ввод!".


*Определитесь, кто Вы:
робот инопланетянин человек

Внимание! Время в таблицах - всемирное. Для получения местного времени необходимо прибавить поправку, которая равна 1 ч.

Смотрите также архив погоды в соседних городах и на ближайших метеорологических станциях:

Погода в Канди (Бенин) (101 км)
Погода в Досо (Нигер) (129 км)
Погода в Йелве (Нигерия) (180 км)
Погода в Ниамее (Нигер) (226 км)
Погода в Натитингу (Бенин) (285 км)
Погода в Вирнин-Конни (Нигер) (289 км)
Погода в Параку (Бенин) (296 км)
Погода в Фада-Нгурме (Буркина-Фасо) (336 км)
Погода в Тиллабери (Нигер) (337 км)
Погода в Ньамтугу (Того) (348 км)

Пояснения к столбцам:

Ветер - указаны скорость ветра в м/с - средняя за 10 мин, порывы в срок и между сроками (в фигурных скобках) и направление, откуда дует ветер: С - северный, СВ - северо-восточный, В - восточный, ЮВ - юго-восточный, Ю - южный, ЮЗ - юго-западный, З - западный, СЗ - северо-западный.
Видимость - горизонтальная дальность видимости в метрах или километрах. При видимости от 1 до 10 км при отсутствии осадков обычно наблюдается дымка, при ухудшении видимости до 1 км и менее - туман. В сухую погоду видимость может ухудшаться дымом, пылью или мглою.
Явления - указаны атмосферные явления, наблюдавшиеся в срок или в последний час перед сроком; фигурными скобками обозначены явления, наблюдавшиеся между сроками (за 1-3 часа до срока); квадратными скобками обозначены град или гололедные отложения с указанием их диаметра в мм.
Облачность - указаны через наклонную черту общая и нижняя облачность в баллах и высота нижней границы облаков в метрах; квадратными скобками обозначены формы облаков: Ci - перистые, Cs - перисто-слоистые, Cc - перисто-кучевые, Ac - высококучевые, As - высокослоистые, Sc - слоисто-кучевые, Ns - слоисто-дождевые, Cu - кучевые, Cb - кучево-дождевые. Подробнее классификацию облаков см. в Атласе облаков (PDF).
T - Температура воздуха - температура, измеренная на высоте 2 м над землей.
Td - Температура точки росы - температура, при понижении до которой содержащийся в воздухе водяной пар достигнет насыщения.
f - Относительная влажность воздуха - влажноcть воздуха, измеренная на высоте 2 м над землей.
Te - Эффективная температура - температура, которую ощущает одетый по сезону человек в тени. Характеристика душности погоды. При расчете учитывается влияние влажности воздуха и скорости ветра на теплоощущения человека.
Tes - Эффективная температура на солнце - температура, которую ощущает человек, с поправкой на солнечный нагрев. Характеристика знойности погоды. Зависит от высоты солнца над горизонтом, облачности и скорости ветра. Ночью, в пасмурную погоду, а также при ветре 12 м/с и более поправка равна нулю.
P - Атмосферное давление - приведенное к уровню моря атмосферное давление.
Po - Атмосферное давление - измеренное на уровне метеостанции атмосферное давление.
Tmin - Минимальная температура - минимум температуры воздуха на высоте 2 м над землей.
Tmax - Максимальная температура - максимум температуры воздуха на высоте 2 м над землей.
R - Количество осадков - Количество выпавших осадков за период времени, мм. При наведении курсора мыши на число - период времени, за который выпало указанное количество осадков.
R24 - Количество осадков - Количество выпавших осадков за 24 часа, мм.
S - Снежный покров - Высота снежного покрова, см. При наведении курсора мыши на число - состояние снежного покрова и степень покрытия местности в баллах.